Weather History for Oxford, CT

Change the Weather History Date:

Wednesday, May 8, 2013

  Actual Average Record
Temperature  
Mean Temperature 60 °F -  
Max Temperature 66 °F 63 °F 87 °F (2000)
Min Temperature 55 °F 43 °F 32 °F (2001)
Degree Days  
Heating Degree Days 4    
Growing Degree Days 10 (Base 50)    
Moisture  
Dew Point 55 °F    
Average Humidity 87    
Maximum Humidity 94    
Minimum Humidity 78    
Precipitation  
Precipitation 0.00 in - - ()
Sea Level Pressure  
Sea Level Pressure 30.10 in    
Wind  
Wind Speed 6 mph (ESE)    
Max Wind Speed 20 mph    
Max Gust Speed 25 mph    
Visibility 7 miles    
Events Fog , Rain    
Averages and records for this station are not official NWS values.
T = Trace of Precipitation, MM = Missing Value Source: NWS Daily Summary

Daily Weather History Graph

Daily Weather History Graph

Search for Another Location

Airport:

Trip Planner

Search our weather history database for the weather conditions in past years. The results will help you decide how hot, cold, wet, or windy it might be!

Date:

Astronomy

May. 08, 2013 Rise Set
Actual Time 5:40 AM EDT 7:57 PM EDT
Civil Twilight 5:09 AM EDT 8:28 PM EDT
Nautical Twilight 4:31 AM EDT 9:07 PM EDT
Astronomical Twilight 3:49 AM EDT 9:49 PM EDT
Moon 4:48 AM EDT (5/8) 6:52 PM EDT (5/8)
Length of Visible Light 15h 19m
Length of Day
14h 17m
Waning Crescent, 2% of the Moon is Illuminated
May 8
Waning Crescent
May 9
New
May 18
First Quarter
May 25
Full
May 31
Last Quarter

Hourly Weather History & Observations

Time (EDT) Temp. Dew Point Humidity Pressure Visibility Wind Dir Wind Speed Gust Speed Precip Events Conditions
12:15 AM 59.0 °F 53.6 °F 82% 30.16 in 10.0 mi ESE 3.5 mph - N/A   Mostly Cloudy
12:35 AM 59.0 °F 53.6 °F 82% 30.16 in 10.0 mi ESE 3.5 mph - N/A   Mostly Cloudy
12:55 AM 59.0 °F 53.6 °F 82% 30.15 in 10.0 mi Calm Calm - N/A   Mostly Cloudy
1:15 AM 59.0 °F 53.6 °F 82% 30.15 in 10.0 mi SE 4.6 mph - N/A   Partly Cloudy
1:35 AM 57.2 °F 53.6 °F 88% 30.15 in 10.0 mi ESE 4.6 mph - N/A   Clear
2:15 AM 57.2 °F 51.8 °F 82% 30.14 in 10.0 mi East 5.8 mph - N/A   Clear
2:35 AM 57.2 °F 51.8 °F 82% 30.13 in 10.0 mi East 3.5 mph - N/A   Clear
2:55 AM 57.2 °F 51.8 °F 82% 30.14 in 10.0 mi ESE 5.8 mph - N/A   Partly Cloudy
3:15 AM 57.2 °F 53.6 °F 88% 30.14 in 10.0 mi ESE 3.5 mph - N/A   Mostly Cloudy
3:35 AM 57.2 °F 53.6 °F 88% 30.14 in 10.0 mi ESE 4.6 mph - N/A   Mostly Cloudy
3:55 AM 57.2 °F 53.6 °F 88% 30.13 in 10.0 mi East 5.8 mph - N/A   Overcast
4:15 AM 57.2 °F 53.6 °F 88% 30.12 in 10.0 mi East 4.6 mph - N/A   Scattered Clouds
4:55 AM 57.2 °F 53.6 °F 88% 30.12 in 10.0 mi ENE 6.9 mph - N/A   Mostly Cloudy
5:15 AM 57.2 °F 53.6 °F 88% 30.11 in 10.0 mi ENE 5.8 mph - N/A   Overcast
5:35 AM 57.2 °F 53.6 °F 88% 30.12 in 10.0 mi East 5.8 mph - N/A   Mostly Cloudy
5:45 AM 57.2 °F 53.6 °F 88% 30.13 in 8.0 mi East 5.8 mph - N/A   Mostly Cloudy
5:55 AM 57.2 °F 53.6 °F 88% 30.13 in 10.0 mi East 4.6 mph - N/A   Scattered Clouds
6:45 AM 57.2 °F 53.6 °F 88% 30.14 in 10.0 mi East 8.1 mph - N/A   Mostly Cloudy
7:05 AM 57.2 °F 53.6 °F 88% 30.14 in 8.0 mi East 8.1 mph - N/A   Overcast
7:45 AM 57.2 °F 53.6 °F 88% 30.15 in 8.0 mi East 6.9 mph - N/A   Overcast
8:45 AM 59.0 °F 55.4 °F 88% 30.14 in 4.0 mi East 6.9 mph - N/A Rain Light Rain
9:45 AM 60.8 °F 57.2 °F 88% 30.14 in 8.0 mi East 9.2 mph - N/A   Overcast
10:26 AM 62.6 °F 57.2 °F 82% 30.14 in 8.0 mi East 6.9 mph - N/A   Mostly Cloudy
10:45 AM 62.6 °F 57.2 °F 82% 30.14 in 8.0 mi East 6.9 mph - N/A   Overcast
11:45 AM 64.4 °F 60.8 °F 88% 30.11 in 8.0 mi North 11.5 mph 18.4 mph N/A   Overcast
12:45 PM 66.2 °F 60.8 °F 83% 30.08 in 8.0 mi SE 11.5 mph 23.0 mph N/A   Overcast
1:45 PM 66.2 °F 59.0 °F 78% 30.06 in 2.0 mi SSE 19.6 mph 25.3 mph N/A Rain Light Rain
2:45 PM 62.6 °F 57.2 °F 82% 30.07 in 1.0 mi SE 12.7 mph 19.6 mph N/A Rain Light Rain
3:10 PM 60.8 °F 57.2 °F 88% 30.06 in 1.0 mi SSE 9.2 mph 20.7 mph N/A Rain Light Rain
3:20 PM 60.8 °F 57.2 °F 88% 30.06 in 0.2 mi SSE 12.7 mph 19.6 mph N/A Fog Fog
3:45 PM 60.8 °F 57.2 °F 88% 30.06 in 0.1 mi SSE 9.2 mph 16.1 mph N/A Fog Fog
4:45 PM 60.8 °F 57.2 °F 88% 30.07 in 0.2 mi SSE 9.2 mph - N/A Fog Fog
5:45 PM 60.8 °F 57.2 °F 88% 30.06 in 0.2 mi SE 5.8 mph - N/A Fog Fog
6:45 PM 60.8 °F 57.2 °F 88% 30.04 in 1.0 mi SSE 8.1 mph - N/A   Overcast
7:55 PM 59.0 °F 55.4 °F 88% 30.05 in 0.2 mi SE 5.8 mph - N/A Fog Fog
8:45 PM 57.2 °F 55.4 °F 94% 30.05 in 0.2 mi SSE 8.1 mph - N/A Fog Fog
8:55 PM 57.2 °F 55.4 °F 94% 30.06 in 0.5 mi SE 9.2 mph - N/A   Overcast
9:15 PM 57.2 °F 55.4 °F 94% 30.06 in 1.8 mi SE 6.9 mph - N/A   Overcast
9:35 PM 57.2 °F 55.4 °F 94% 30.07 in 0.5 mi SE 5.8 mph - N/A   Overcast
9:55 PM 57.2 °F 55.4 °F 94% 30.08 in 1.0 mi SSE 8.1 mph - N/A   Overcast
10:15 PM 57.2 °F 53.6 °F 88% 30.08 in 10.0 mi SSE 6.9 mph - N/A   Overcast
10:35 PM 55.4 °F 53.6 °F 94% 30.08 in 10.0 mi South 3.5 mph - N/A   Mostly Cloudy
10:55 PM 55.4 °F 53.6 °F 94% 30.07 in 10.0 mi South 3.5 mph - N/A   Overcast
11:15 PM 55.4 °F 53.6 °F 94% 30.06 in 10.0 mi South 4.6 mph - N/A   Overcast
11:35 PM 55.4 °F 51.8 °F 88% 30.06 in 10.0 mi South 4.6 mph - N/A   Overcast
11:55 PM 55.4 °F 51.8 °F 88% 30.05 in 10.0 mi ESE 3.5 mph - N/A   Mostly Cloudy